Date,Time,Wetness (Wet Dry or Ice),Wind Speed (m/s),Temperature (C),Humidity (%),Pressure (mb),Radiation (W/m^2)
2020-02-17,02:10:00,DRY,1.70,7.00,23.7,780.67,1.1
2020-02-17,02:15:00,DRY,1.40,7.10,23.5,780.00,1.8
2020-02-17,02:20:00,DRY,1.40,7.10,26.0,780.33,1.0
2020-02-17,02:25:00,DRY,1.25,7.00,24.0,780.00,2.2
2020-02-17,02:30:00,DRY,1.10,7.10,23.3,780.00,1.2
2020-02-17,02:35:00,DRY,1.15,7.10,26.5,780.00,1.1
2020-02-17,02:40:00,DRY,1.57,7.03,25.3,780.00,0.6
2020-02-17,02:45:00,DRY,0.75,7.10,27.5,780.00,1.2
2020-02-17,02:50:00,DRY,1.13,7.13,24.3,780.00,1.6
2020-02-17,02:55:00,DRY,1.75,7.10,26.5,780.00,1.5
2020-02-17,03:00:00,DRY,1.33,7.00,27.0,780.00,1.3
2020-02-17,03:05:00,DRY,1.90,6.85,26.0,780.00,1.6
2020-02-17,03:10:00,DRY,1.63,6.70,28.3,780.00,1.3
2020-02-17,03:15:00,DRY,2.55,7.00,33.0,780.00,1.1
2020-02-17,03:20:00,DRY,2.70,7.10,32.0,780.00,1.3
2020-02-17,03:25:00,DRY,3.30,6.85,29.5,780.00,1.2
2020-02-17,03:30:00,DRY,3.30,6.73,31.0,780.00,1.2
2020-02-17,03:35:00,DRY,3.30,6.70,33.0,780.00,1.6
2020-02-17,03:40:00,DRY,3.10,6.60,34.3,780.00,1.1
2020-02-17,03:45:00,DRY,3.20,6.60,34.0,780.00,1.3
2020-02-17,03:50:00,DRY,2.73,6.87,28.0,780.00,0.9
2020-02-17,03:55:00,DRY,1.50,7.05,27.5,780.00,0.8
2020-02-17,04:00:00,DRY,1.80,7.07,29.0,780.00,1.3
2020-02-17,04:05:00,DRY,0.85,6.95,25.0,780.00,1.1
2020-02-17,04:10:00,DRY,1.80,7.20,22.0,780.00,1.5
2020-02-17,04:15:00,DRY,1.90,7.15,21.5,780.00,1.9
2020-02-17,04:20:00,DRY,1.53,7.13,20.0,780.00,2.0
2020-02-17,04:25:00,DRY,2.75,7.05,20.0,780.00,1.6
2020-02-17,04:30:00,DRY,2.40,7.30,19.3,780.00,0.3
2020-02-17,04:35:00,DRY,3.50,7.00,20.0,780.00,1.1
2020-02-17,04:40:00,DRY,2.47,7.00,18.0,780.00,1.2
2020-02-17,04:45:00,DRY,2.95,7.25,17.0,780.00,0.9
2020-02-17,04:50:00,DRY,2.50,7.37,16.0,780.00,1.3
2020-02-17,04:55:00,DRY,3.40,7.05,16.0,780.00,1.0
2020-02-17,05:00:00,DRY,2.50,7.23,16.0,780.00,0.8
2020-02-17,05:05:00,DRY,2.30,7.20,15.0,780.00,1.4
2020-02-17,05:10:00,DRY,2.60,7.23,15.7,780.00,1.0
2020-02-17,05:15:00,DRY,3.35,7.60,14.5,780.00,1.3
2020-02-17,05:20:00,DRY,3.00,7.53,14.0,780.00,1.4
2020-02-17,05:25:00,DRY,3.50,7.50,12.5,780.00,0.8
2020-02-17,05:30:00,DRY,3.77,7.63,12.7,780.00,1.1
2020-02-17,05:35:00,DRY,4.20,7.45,13.5,780.00,1.9
2020-02-17,05:40:00,DRY,3.80,7.90,11.7,780.00,1.5
2020-02-17,05:45:00,DRY,1.40,7.45,12.5,780.00,2.0
2020-02-17,05:50:00,DRY,2.10,7.23,12.3,780.00,1.3
2020-02-17,05:55:00,DRY,1.50,7.55,10.0,780.00,1.5
2020-02-17,06:00:00,DRY,2.40,7.57,9.3,780.00,0.8
2020-02-17,06:05:00,DRY,1.10,7.55,10.0,780.00,0.7
2020-02-17,06:10:00,DRY,1.87,7.10,9.7,780.00,1.8
2020-02-17,06:15:00,DRY,2.25,7.20,9.0,780.00,1.1
2020-02-17,06:20:00,DRY,1.50,7.57,9.0,780.00,1.3
2020-02-17,06:25:00,DRY,3.35,7.15,13.0,780.00,1.4
2020-02-17,06:30:00,DRY,3.60,7.10,14.0,780.00,1.2
2020-02-17,06:35:00,DRY,2.75,7.05,15.0,780.00,1.1
2020-02-17,06:40:00,DRY,3.27,7.13,14.3,780.00,1.1
2020-02-17,06:45:00,DRY,2.70,7.05,14.5,780.00,1.1
2020-02-17,06:50:00,DRY,2.97,7.40,10.3,780.00,1.2
2020-02-17,06:55:00,DRY,1.50,7.55,10.5,780.00,1.8
2020-02-17,07:00:00,DRY,1.57,7.43,11.0,780.00,1.2
2020-02-17,07:05:00,DRY,3.05,7.25,12.0,780.00,0.5
2020-02-17,07:10:00,DRY,4.03,7.53,10.7,780.00,1.7
2020-02-17,07:15:00,DRY,3.75,8.45,9.0,780.00,2.5
2020-02-17,07:20:00,DRY,5.27,8.33,6.3,780.00,1.2
2020-02-17,07:25:00,DRY,1.55,8.85,7.5,780.00,1.9
2020-02-17,07:30:00,DRY,3.37,8.40,7.3,780.00,1.2
2020-02-17,07:35:00,DRY,5.90,8.40,7.5,780.00,1.9
2020-02-17,07:40:00,DRY,3.87,8.23,9.0,780.00,2.7
2020-02-17,07:45:00,DRY,3.05,7.75,9.5,780.00,4.4
2020-02-17,07:50:00,DRY,1.93,8.37,8.7,780.00,7.3
2020-02-17,07:55:00,DRY,3.60,8.65,7.0,780.00,9.2
2020-02-17,08:00:00,DRY,2.87,8.77,8.0,780.00,12.3
2020-02-17,08:05:00,DRY,1.85,8.55,8.5,780.00,15.2
2020-02-17,08:10:00,DRY,1.80,7.87,11.7,780.33,17.6
2020-02-17,08:15:00,DRY,1.45,7.45,10.5,780.50,20.1
2020-02-17,08:20:00,DRY,1.03,7.93,10.3,780.67,22.5
2020-02-17,08:25:00,DRY,1.75,7.95,9.0,781.00,41.5
2020-02-17,08:30:00,DRY,1.40,8.87,8.3,781.00,163.4
2020-02-17,08:35:00,DRY,2.25,8.65,9.0,781.00,154.6
2020-02-17,08:40:00,DRY,0.73,8.57,9.0,781.00,205.5
2020-02-17,08:45:00,DRY,0.90,8.65,9.5,781.00,227.9
2020-02-17,08:50:00,DRY,0.97,8.93,9.0,781.00,248.4
2020-02-17,08:55:00,DRY,0.95,9.20,9.0,781.00,270.8
2020-02-17,09:00:00,DRY,1.70,9.53,9.3,781.00,292.3
2020-02-17,09:05:00,DRY,0.70,9.20,9.0,781.00,313.5
2020-02-17,09:10:00,DRY,1.40,9.10,10.0,781.00,334.2
2020-02-17,09:15:00,DRY,1.15,8.95,11.0,781.00,353.9
2020-02-17,09:20:00,DRY,1.63,9.07,11.7,781.00,374.2
2020-02-17,09:25:00,DRY,1.00,9.50,12.0,781.00,392.8
2020-02-17,09:30:00,DRY,2.53,9.37,12.3,781.00,414.1
2020-02-17,09:35:00,DRY,2.05,9.25,12.0,781.00,435.9
2020-02-17,09:40:00,DRY,2.23,8.80,12.0,781.00,429.4
2020-02-17,09:45:00,DRY,0.75,9.10,12.5,781.00,483.1
2020-02-17,09:50:00,DRY,1.83,9.53,13.0,781.00,504.0
2020-02-17,09:55:00,DRY,0.65,9.60,13.5,781.00,529.5
2020-02-17,10:00:00,DRY,1.60,9.63,14.3,781.00,531.5
2020-02-17,10:05:00,DRY,1.30,9.55,14.0,781.00,597.8
2020-02-17,10:10:00,DRY,0.77,9.63,14.0,781.00,455.3
2020-02-17,10:15:00,DRY,1.55,10.10,13.5,781.00,639.5
2020-02-17,10:20:00,DRY,0.97,10.37,14.7,781.00,495.2
2020-02-17,10:25:00,DRY,0.95,10.00,14.5,781.00,304.8
2020-02-17,10:30:00,DRY,0.87,10.03,15.3,781.00,214.3
2020-02-17,10:35:00,DRY,1.25,9.60,16.5,781.00,224.9
2020-02-17,10:40:00,DRY,0.77,9.23,17.3,781.00,223.9
2020-02-17,10:45:00,DRY,2.20,9.15,19.5,781.00,251.4
2020-02-17,10:50:00,DRY,3.03,9.17,17.3,781.00,293.8
2020-02-17,10:55:00,DRY,1.60,9.40,18.5,781.00,359.0
2020-02-17,11:00:00,DRY,2.23,9.87,17.0,781.00,468.5
2020-02-17,11:05:00,DRY,1.30,10.20,17.0,781.00,451.5
2020-02-17,11:10:00,DRY,1.00,10.63,17.0,781.33,596.5
2020-02-17,11:15:00,DRY,0.90,11.10,18.0,781.00,982.2
2020-02-17,11:20:00,DRY,1.37,10.67,19.0,781.00,599.0
2020-02-17,11:25:00,DRY,1.25,11.00,19.5,781.00,745.5
2020-02-17,11:30:00,DRY,1.50,10.90,20.0,781.00,755.1
2020-02-17,11:35:00,DRY,1.90,11.10,20.0,781.00,813.3
2020-02-17,11:40:00,DRY,1.87,11.40,21.3,781.00,819.7
2020-02-17,11:45:00,DRY,3.50,11.00,21.5,781.00,827.5
2020-02-17,11:50:00,DRY,2.40,11.03,21.0,781.00,834.6
2020-02-17,11:55:00,DRY,1.85,11.05,22.5,781.00,845.7
2020-02-17,12:00:00,DRY,2.27,11.07,22.3,781.00,855.7
2020-02-17,12:05:00,DRY,1.55,11.40,22.0,781.00,863.6
2020-02-17,12:10:00,DRY,2.10,11.57,21.0,781.00,872.7
2020-02-17,12:15:00,DRY,0.90,12.20,22.0,781.00,883.1
2020-02-17,12:20:00,DRY,1.10,12.10,22.0,781.00,886.2
2020-02-17,12:25:00,DRY,1.80,11.90,23.5,781.00,887.8
2020-02-17,12:30:00,DRY,1.70,11.70,24.7,781.00,891.3
2020-02-17,12:35:00,DRY,2.35,11.55,25.5,781.00,895.6
2020-02-17,12:40:00,DRY,1.30,11.30,25.7,781.00,899.8
2020-02-17,12:45:00,DRY,2.05,11.90,25.0,781.00,904.0
2020-02-17,12:50:00,DRY,0.90,11.43,26.3,781.00,907.3
2020-02-17,12:55:00,DRY,1.20,11.65,28.0,781.00,912.3
2020-02-17,13:00:00,DRY,1.50,11.50,29.0,781.00,914.6
2020-02-17,13:05:00,DRY,0.40,11.20,28.5,781.00,915.5
2020-02-17,13:10:00,DRY,1.17,11.63,29.7,780.67,914.4
2020-02-17,13:15:00,DRY,1.00,11.55,31.0,781.00,914.5
2020-02-17,13:20:00,DRY,2.10,11.70,31.7,781.00,916.1
2020-02-17,13:25:00,DRY,1.05,11.50,33.0,780.50,913.4
2020-02-17,13:30:00,DRY,1.40,11.50,32.0,781.00,918.7
2020-02-17,13:35:00,DRY,0.80,10.80,35.0,781.00,915.1
2020-02-17,13:40:00,DRY,1.40,11.00,34.0,780.33,911.8
2020-02-17,13:45:00,DRY,1.15,11.00,34.5,781.00,907.9
2020-02-17,13:50:00,DRY,1.77,11.13,35.0,780.67,906.1
2020-02-17,13:55:00,DRY,1.85,11.25,35.0,780.00,904.8
2020-02-17,14:00:00,DRY,1.10,11.63,35.0,780.00,898.5
2020-02-17,14:05:00,DRY,2.40,11.25,36.5,780.00,896.9
2020-02-17,14:10:00,DRY,1.80,11.63,35.7,780.00,890.3
2020-02-17,14:15:00,DRY,1.60,11.15,38.5,780.00,884.8
2020-02-17,14:20:00,DRY,1.50,11.20,36.3,780.00,880.1
2020-02-17,14:25:00,DRY,2.40,11.05,37.5,780.00,872.4
2020-02-17,14:30:00,DRY,1.30,11.47,37.7,780.00,864.7
2020-02-17,14:35:00,DRY,1.25,11.50,40.5,780.00,857.0
2020-02-17,14:40:00,DRY,2.05,11.50,40.5,780.00,849.7
2020-02-17,14:45:00,DRY,2.10,11.15,39.0,780.00,845.5
2020-02-17,14:50:00,DRY,1.33,10.77,39.3,780.00,834.5
2020-02-17,14:55:00,DRY,1.80,11.15,38.5,780.00,826.3
2020-02-17,15:00:00,DRY,2.20,10.87,42.0,780.00,818.4
2020-02-17,15:05:00,DRY,1.50,10.65,45.5,780.00,809.6
2020-02-17,15:10:00,DRY,1.87,10.50,42.7,780.00,809.3
2020-02-17,15:15:00,DRY,1.65,11.30,38.0,780.00,820.1
2020-02-17,15:20:00,DRY,1.67,10.93,44.7,780.00,773.0
2020-02-17,15:25:00,DRY,1.55,10.90,40.0,780.00,760.7
2020-02-17,15:30:00,DRY,1.43,10.67,40.3,780.00,748.3
2020-02-17,15:35:00,DRY,1.15,10.50,44.5,780.00,737.5
2020-02-17,15:40:00,DRY,1.70,10.17,48.7,780.00,721.0
2020-02-17,15:45:00,DRY,1.70,9.80,50.5,780.00,709.4
2020-02-17,15:50:00,DRY,1.27,9.40,51.7,780.00,692.8
2020-02-17,15:55:00,DRY,1.70,9.90,45.0,780.00,682.0
2020-02-17,16:00:00,DRY,1.40,10.00,50.0,780.00,664.0
2020-02-17,16:05:00,DRY,1.55,10.15,49.5,780.00,651.0
2020-02-17,16:10:00,DRY,0.67,10.30,45.0,780.00,635.4
2020-02-17,16:15:00,DRY,1.45,10.85,44.0,780.00,620.0
2020-02-17,16:20:00,DRY,1.50,10.40,46.0,780.00,600.7
2020-02-17,16:25:00,DRY,1.90,10.50,48.0,780.00,587.2
2020-02-17,16:30:00,DRY,0.83,10.80,42.3,780.00,570.1
2020-02-17,16:35:00,DRY,2.45,11.05,40.5,780.00,556.7
2020-02-17,16:40:00,DRY,1.17,10.50,42.7,780.00,540.8
2020-02-17,16:45:00,DRY,1.55,10.80,42.5,780.00,521.0
2020-02-17,16:50:00,DRY,1.43,10.90,42.7,780.00,504.8
2020-02-17,16:55:00,DRY,1.75,11.00,38.5,780.00,492.6
2020-02-17,17:00:00,DRY,1.60,11.23,38.7,780.00,472.0
2020-02-17,17:05:00,DRY,1.45,11.30,38.5,780.00,460.8
2020-02-17,17:10:00,DRY,1.77,9.80,47.0,780.00,434.0
2020-02-17,17:15:00,DRY,1.10,9.40,49.5,780.00,405.1
2020-02-17,17:20:00,DRY,1.53,9.30,50.3,780.00,383.3
2020-02-17,17:25:00,DRY,0.45,9.45,49.5,780.00,362.4
2020-02-17,17:30:00,DRY,1.17,9.70,48.7,780.00,341.0
2020-02-17,17:35:00,DRY,0.80,9.25,51.0,780.00,319.7
2020-02-17,17:40:00,DRY,0.97,9.07,52.3,780.00,299.4
2020-02-17,17:45:00,DRY,0.50,9.15,45.5,780.00,278.6
2020-02-17,17:50:00,DRY,0.80,9.73,40.7,780.00,259.4
2020-02-17,17:55:00,DRY,0.80,9.95,44.0,780.00,237.4
2020-02-17,18:00:00,DRY,1.17,9.67,40.3,780.00,218.1
2020-02-17,18:05:00,DRY,1.90,9.65,39.5,780.00,198.7
2020-02-17,18:10:00,DRY,0.87,9.57,35.3,780.00,178.1
2020-02-17,18:15:00,DRY,1.75,9.60,32.0,780.00,160.4
2020-02-17,18:20:00,DRY,1.30,9.47,33.3,780.00,143.0
2020-02-17,18:25:00,DRY,1.85,9.30,32.0,780.00,101.6
2020-02-17,18:30:00,DRY,1.30,9.20,34.3,780.00,75.0
2020-02-17,18:35:00,DRY,1.55,9.10,35.5,780.00,72.0
2020-02-17,18:40:00,DRY,1.17,8.97,37.7,780.00,52.1
2020-02-17,18:45:00,DRY,0.80,8.65,48.5,780.00,24.0
2020-02-17,18:50:00,DRY,1.07,8.43,45.7,780.00,13.5
2020-02-17,18:55:00,DRY,1.65,8.50,38.0,780.00,12.2
2020-02-17,19:00:00,DRY,1.73,8.43,38.7,780.00,8.6
2020-02-17,19:05:00,DRY,2.20,8.05,39.0,780.00,6.2
2020-02-17,19:10:00,DRY,1.00,7.73,44.0,780.00,4.6
2020-02-17,19:15:00,DRY,1.60,7.45,46.5,780.00,1.9
2020-02-17,19:20:00,DRY,1.63,7.33,41.3,780.00,0.5
2020-02-17,19:25:00,DRY,2.05,7.40,37.5,780.00,1.8
2020-02-17,19:30:00,DRY,1.77,7.20,42.0,780.33,0.7
2020-02-17,19:35:00,DRY,2.00,7.20,35.5,780.00,1.6
2020-02-17,19:40:00,DRY,2.57,7.40,29.7,780.67,1.9
2020-02-17,19:45:00,DRY,2.45,7.15,29.5,781.00,0.9
2020-02-17,19:50:00,DRY,2.43,7.23,26.7,781.00,2.1
2020-02-17,19:55:00,DRY,2.90,7.40,25.5,781.00,1.8
2020-02-17,20:00:00,DRY,2.33,7.13,29.3,781.00,1.6
2020-02-17,20:05:00,DRY,2.85,7.00,32.5,781.00,0.9
2020-02-17,20:10:00,DRY,2.90,7.00,35.3,781.00,1.8
2020-02-17,20:15:00,DRY,3.10,6.90,33.0,781.00,1.2
2020-02-17,20:20:00,DRY,3.17,6.97,32.0,781.00,1.4
2020-02-17,20:25:00,DRY,3.70,7.00,31.5,781.00,1.4
2020-02-17,20:30:00,DRY,3.93,7.03,33.0,781.00,2.4
2020-02-17,20:35:00,DRY,2.65,7.10,33.5,781.00,1.7
2020-02-17,20:40:00,DRY,1.70,7.27,38.7,781.00,1.6
2020-02-17,20:45:00,DRY,3.00,7.30,32.0,781.00,1.1
2020-02-17,20:50:00,DRY,3.90,7.37,32.3,781.00,1.4
2020-02-17,20:55:00,DRY,5.50,7.40,33.0,781.00,2.2
2020-02-17,21:00:00,DRY,4.80,7.37,32.7,781.00,1.2
2020-02-17,21:05:00,DRY,4.20,7.40,33.0,781.00,1.1
2020-02-17,21:10:00,DRY,3.90,7.40,32.3,781.00,1.3
2020-02-17,21:15:00,DRY,2.65,7.35,32.0,781.00,1.1
2020-02-17,21:20:00,DRY,2.70,7.47,32.0,781.00,1.0
2020-02-17,21:25:00,DRY,3.75,7.45,30.0,781.00,1.2
2020-02-17,21:30:00,DRY,3.80,7.47,28.3,781.00,1.4
2020-02-17,21:35:00,DRY,5.45,7.65,26.5,781.00,2.2
2020-02-17,21:40:00,DRY,4.67,7.73,26.3,781.00,1.5
2020-02-17,21:45:00,DRY,4.35,7.70,27.0,781.00,1.1
2020-02-17,21:50:00,DRY,2.95,7.70,25.5,781.00,0.7
2020-02-17,21:55:00,DRY,2.20,7.60,26.0,781.00,2.2
2020-02-17,22:00:00,DRY,3.73,7.60,28.0,781.00,1.4
2020-02-17,22:05:00,DRY,4.00,7.45,29.0,781.00,1.6
2020-02-17,22:10:00,DRY,4.20,7.53,28.0,781.00,1.2
2020-02-17,22:15:00,DRY,3.65,7.65,27.5,781.00,1.3
2020-02-17,22:20:00,DRY,3.53,7.70,26.7,781.00,0.8
2020-02-17,22:25:00,DRY,2.15,7.75,28.0,781.00,1.2
2020-02-17,22:30:00,DRY,1.60,7.77,28.0,781.00,1.8
2020-02-17,22:35:00,DRY,1.70,7.75,28.0,781.00,0.6
2020-02-17,22:40:00,DRY,1.67,7.60,27.0,781.00,1.7
2020-02-17,22:45:00,DRY,1.25,7.60,26.0,781.00,1.0
2020-02-17,22:50:00,DRY,1.70,7.87,28.7,781.00,2.2
2020-02-17,22:55:00,DRY,2.10,7.80,29.0,781.00,0.9
2020-02-17,23:00:00,DRY,3.23,8.07,27.3,781.00,0.9
2020-02-17,23:05:00,DRY,3.00,8.35,23.5,781.00,0.7
2020-02-17,23:10:00,DRY,3.27,8.73,20.3,781.00,0.7
2020-02-17,23:15:00,DRY,0.65,8.55,22.5,781.00,1.8
2020-02-17,23:20:00,DRY,1.27,8.23,23.3,781.00,0.8
2020-02-17,23:25:00,DRY,2.25,8.20,25.0,781.00,1.1
2020-02-17,23:30:00,DRY,1.60,8.13,24.7,781.00,1.2
2020-02-17,23:35:00,DRY,1.75,8.10,23.0,781.00,2.3
2020-02-17,23:40:00,DRY,2.13,8.20,23.7,781.00,1.0
2020-02-17,23:45:00,DRY,1.45,8.20,23.5,781.00,0.8
2020-02-17,23:50:00,DRY,2.60,8.47,22.7,781.00,1.3
2020-02-17,23:55:00,DRY,1.65,8.35,21.0,781.00,0.2
2020-02-18,00:00:00,DRY,2.90,8.47,21.0,781.00,0.8
2020-02-18,00:05:00,DRY,1.85,8.90,18.5,781.00,1.9
2020-02-18,00:10:00,DRY,1.57,9.00,18.7,781.00,1.6
2020-02-18,00:15:00,DRY,2.05,8.80,19.5,781.00,1.3
2020-02-18,00:20:00,DRY,2.03,8.80,19.7,781.00,1.3
2020-02-18,00:25:00,DRY,1.60,8.90,20.0,781.00,1.9
2020-02-18,00:30:00,DRY,2.40,9.27,18.3,781.00,1.7
2020-02-18,00:35:00,DRY,1.85,8.95,19.0,781.00,1.6
2020-02-18,00:40:00,DRY,2.13,9.27,18.0,781.00,1.1
2020-02-18,00:45:00,DRY,2.15,9.40,17.0,781.00,1.6
2020-02-18,00:50:00,DRY,2.53,9.43,17.0,781.00,0.8
2020-02-18,00:55:00,DRY,1.50,9.35,18.0,781.00,1.2
2020-02-18,01:00:00,DRY,1.70,9.03,19.7,781.00,0.7
2020-02-18,01:05:00,DRY,2.90,9.00,20.0,781.00,1.4
2020-02-18,01:10:00,DRY,2.33,9.23,18.7,781.00,0.8
2020-02-18,01:15:00,DRY,2.55,8.55,23.5,781.00,0.6
2020-02-18,01:20:00,DRY,3.20,8.33,24.3,781.00,1.1
2020-02-18,01:25:00,DRY,3.40,8.45,23.0,781.00,1.1
2020-02-18,01:30:00,DRY,2.60,8.47,23.0,781.00,1.1
2020-02-18,01:35:00,DRY,3.00,8.50,23.0,781.00,0.6
2020-02-18,01:40:00,DRY,2.93,8.40,22.7,780.67,1.0
2020-02-18,01:45:00,DRY,2.75,8.55,22.0,781.00,1.6
2020-02-18,01:50:00,DRY,3.63,8.53,21.7,780.67,1.5
2020-02-18,01:55:00,DRY,3.50,8.50,21.0,780.50,1.4
2020-02-18,02:00:00,DRY,2.67,8.97,18.3,780.33,1.0
2020-02-18,02:05:00,DRY,2.90,8.75,20.5,780.50,0.9
2020-02-18,02:10:00,DRY,2.43,8.73,19.7,780.00,0.7
2020-02-18,02:15:00,DRY,2.65,8.45,21.0,780.00,0.7
2020-02-18,02:20:00,DRY,3.10,8.30,22.7,780.00,1.2
2020-02-18,02:25:00,DRY,3.35,8.40,22.5,780.00,1.2
2020-02-18,02:30:00,DRY,2.93,8.30,23.0,780.00,1.2
2020-02-18,02:35:00,DRY,2.70,8.25,23.0,780.00,0.9
2020-02-18,02:40:00,DRY,3.57,8.27,23.0,780.00,0.9
2020-02-18,02:45:00,DRY,3.30,8.00,23.0,780.00,0.6
2020-02-18,02:50:00,DRY,3.27,8.07,22.7,780.00,1.2
2020-02-18,02:55:00,DRY,2.55,8.35,21.5,780.00,1.5
2020-02-18,03:00:00,DRY,2.57,8.17,21.7,780.00,1.7
2020-02-18,03:05:00,DRY,2.30,8.35,21.0,780.00,1.4
2020-02-18,03:10:00,DRY,1.20,8.30,22.0,780.00,1.3
2020-02-18,03:15:00,DRY,1.15,7.95,23.0,780.00,1.4
2020-02-18,03:20:00,DRY,1.50,8.00,22.3,780.00,1.3
2020-02-18,03:25:00,DRY,0.95,8.05,23.5,780.00,0.8
2020-02-18,03:30:00,DRY,0.43,7.73,24.0,780.00,1.4
2020-02-18,03:35:00,DRY,0.75,7.55,24.0,780.00,1.8
2020-02-18,03:40:00,DRY,1.03,7.50,25.0,780.00,1.2
2020-02-18,03:45:00,DRY,2.00,7.25,25.0,780.00,1.2
2020-02-18,03:50:00,DRY,1.57,7.60,22.7,780.00,2.1
2020-02-18,03:55:00,DRY,1.35,7.60,23.0,780.00,1.3
2020-02-18,04:00:00,DRY,1.37,7.47,23.3,780.00,1.0
2020-02-18,04:05:00,DRY,1.55,7.65,23.0,780.00,1.0
2020-02-18,04:10:00,DRY,0.97,7.60,21.7,780.00,1.2
2020-02-18,04:15:00,DRY,0.50,7.70,21.0,780.00,1.2
2020-02-18,04:20:00,DRY,1.00,7.73,21.3,780.00,1.3
2020-02-18,04:25:00,DRY,1.30,7.50,22.0,780.00,0.9
2020-02-18,04:30:00,DRY,1.20,7.53,20.3,780.00,0.8
2020-02-18,04:35:00,DRY,1.55,7.90,20.0,780.00,0.1
2020-02-18,04:40:00,DRY,1.43,7.77,20.0,780.00,1.0
2020-02-18,04:45:00,DRY,1.25,7.60,20.0,780.00,1.1
2020-02-18,04:50:00,DRY,1.80,7.53,20.0,780.00,0.9
2020-02-18,04:55:00,DRY,1.50,7.75,19.5,780.00,0.7
2020-02-18,05:00:00,DRY,1.70,7.73,19.3,780.00,1.2
2020-02-18,05:05:00,DRY,2.00,7.70,19.0,780.00,1.0
2020-02-18,05:10:00,DRY,2.87,7.80,19.0,780.00,1.4
2020-02-18,05:15:00,DRY,2.45,8.05,18.0,780.00,1.3
2020-02-18,05:20:00,DRY,2.63,7.87,18.3,780.00,1.5
2020-02-18,05:25:00,DRY,2.95,8.00,17.0,780.00,1.2
2020-02-18,05:30:00,DRY,3.00,8.10,17.0,780.00,1.8
2020-02-18,05:35:00,DRY,2.35,8.15,17.0,780.00,1.9
2020-02-18,05:40:00,DRY,2.63,8.20,17.0,780.00,1.1
2020-02-18,05:45:00,DRY,3.00,8.25,15.5,780.00,1.2
2020-02-18,05:50:00,DRY,3.07,8.27,14.3,780.00,1.0
2020-02-18,05:55:00,DRY,4.10,8.50,14.0,780.00,0.8
2020-02-18,06:00:00,DRY,3.87,8.40,14.0,780.00,1.5
2020-02-18,06:05:00,DRY,3.90,8.45,13.0,780.00,1.0
2020-02-18,06:10:00,DRY,3.50,8.50,13.0,780.00,1.3
2020-02-18,06:15:00,DRY,3.80,8.50,13.0,780.00,1.2
2020-02-18,06:20:00,DRY,3.03,8.43,13.0,780.00,0.9
2020-02-18,06:25:00,DRY,3.35,8.25,13.0,780.00,0.7
2020-02-18,06:30:00,DRY,3.63,8.47,11.0,780.00,1.4
2020-02-18,06:35:00,DRY,3.90,8.60,7.0,780.00,1.0
2020-02-18,06:40:00,DRY,3.90,8.73,6.0,780.00,1.2
2020-02-18,06:45:00,DRY,3.45,8.65,5.0,780.00,1.4
2020-02-18,06:50:00,DRY,3.20,8.70,5.3,780.00,1.1
2020-02-18,06:55:00,DRY,3.45,8.65,5.5,780.00,0.6
2020-02-18,07:00:00,DRY,3.73,9.17,5.0,780.00,1.6
2020-02-18,07:05:00,DRY,2.95,9.30,5.0,780.00,1.0
2020-02-18,07:10:00,DRY,3.47,9.27,5.0,780.00,0.7
2020-02-18,07:15:00,DRY,3.85,9.15,6.0,780.00,1.5
2020-02-18,07:20:00,DRY,3.27,9.20,6.0,780.00,1.0
2020-02-18,07:25:00,DRY,4.10,9.15,6.0,780.00,1.4
2020-02-18,07:30:00,DRY,3.20,9.13,6.0,780.00,1.8
2020-02-18,07:35:00,DRY,5.70,9.25,6.0,780.00,2.1
2020-02-18,07:40:00,DRY,5.13,9.33,5.7,780.00,3.0
2020-02-18,07:45:00,DRY,5.30,9.35,5.0,780.00,4.1
2020-02-18,07:50:00,DRY,5.00,9.70,5.0,780.00,6.3
2020-02-18,07:55:00,DRY,5.30,9.65,5.0,780.00,9.4
2020-02-18,08:00:00,DRY,5.27,9.73,5.0,780.00,11.9
2020-02-18,08:05:00,DRY,6.00,9.55,5.0,780.00,15.2
2020-02-18,08:10:00,DRY,5.57,9.50,5.0,780.00,18.9
2020-02-18,08:15:00,DRY,5.60,9.45,5.0,780.00,21.9
2020-02-18,08:20:00,DRY,6.00,9.73,5.0,780.00,24.4
2020-02-18,08:25:00,DRY,4.95,9.85,5.0,780.00,39.8
2020-02-18,08:30:00,DRY,4.33,10.00,5.0,780.00,139.3
2020-02-18,08:35:00,DRY,5.40,10.20,5.0,780.00,186.7
2020-02-18,08:40:00,DRY,3.83,10.47,5.0,780.00,210.3
2020-02-18,08:45:00,DRY,3.95,10.55,5.0,780.00,219.5
2020-02-18,08:50:00,DRY,4.90,10.60,5.0,780.00,199.9
2020-02-18,08:55:00,DRY,5.20,10.45,5.0,780.00,189.6
2020-02-18,09:00:00,DRY,3.95,10.45,5.5,780.00,176.4
2020-02-18,09:05:00,DRY,4.70,10.45,5.5,780.00,256.8
2020-02-18,09:10:00,DRY,4.00,10.67,6.0,780.00,300.2
2020-02-18,09:15:00,DRY,5.00,10.80,6.5,780.50,343.6
2020-02-18,09:20:00,DRY,4.03,10.87,6.7,781.00,376.8
2020-02-18,09:25:00,DRY,7.35,10.80,6.5,780.00,402.8
2020-02-18,09:30:00,DRY,4.07,11.00,7.3,781.00,424.6
2020-02-18,09:35:00,DRY,5.20,10.90,7.0,780.50,444.9
2020-02-18,09:40:00,DRY,4.03,11.00,7.3,781.00,464.4
2020-02-18,09:45:00,DRY,5.55,11.05,8.0,780.50,482.2
2020-02-18,09:50:00,DRY,4.20,11.03,7.3,781.00,502.2
2020-02-18,09:55:00,DRY,3.75,11.20,8.5,781.00,520.4
2020-02-18,10:00:00,DRY,4.73,11.23,8.0,781.00,539.0
2020-02-18,10:05:00,DRY,6.15,11.20,8.5,781.00,554.8
2020-02-18,10:10:00,DRY,4.07,11.43,8.7,781.00,573.6
2020-02-18,10:15:00,DRY,4.70,11.35,8.5,781.00,592.2
2020-02-18,10:20:00,DRY,3.63,11.33,10.3,781.00,610.3
2020-02-18,10:25:00,DRY,3.05,11.35,9.0,781.00,627.3
2020-02-18,10:30:00,DRY,3.20,11.57,9.0,781.00,643.0
2020-02-18,10:35:00,DRY,3.25,11.55,8.5,781.00,660.1
2020-02-18,10:40:00,DRY,4.03,11.67,9.0,781.00,675.8
2020-02-18,10:45:00,DRY,3.65,11.70,9.5,781.00,691.2
2020-02-18,10:50:00,DRY,3.90,11.73,9.3,781.00,706.3
2020-02-18,10:55:00,DRY,4.20,11.90,9.0,781.00,721.5
2020-02-18,11:00:00,DRY,4.90,11.77,10.3,781.00,734.9
2020-02-18,11:05:00,DRY,3.20,11.80,11.5,781.00,748.0
2020-02-18,11:10:00,DRY,2.90,11.80,10.0,781.00,761.4
2020-02-18,11:15:00,DRY,2.75,11.80,10.5,781.00,776.0
2020-02-18,11:20:00,DRY,3.63,12.03,13.0,781.00,785.3
2020-02-18,11:25:00,DRY,4.25,12.15,13.5,781.00,797.8
2020-02-18,11:30:00,DRY,2.80,12.03,11.7,781.00,809.1
2020-02-18,11:35:00,DRY,3.15,12.10,10.5,781.00,819.6
2020-02-18,11:40:00,DRY,2.87,12.30,11.0,781.00,830.5
2020-02-18,11:45:00,DRY,2.10,12.30,12.5,781.00,838.5
2020-02-18,11:50:00,DRY,3.87,12.40,11.7,781.00,850.1
2020-02-18,11:55:00,DRY,3.20,12.35,12.5,781.00,857.5
2020-02-18,12:00:00,DRY,2.50,12.30,12.3,781.00,866.3
2020-02-18,12:05:00,DRY,3.15,12.80,12.0,781.00,874.3
2020-02-18,12:10:00,DRY,3.47,12.60,12.3,781.00,882.6
2020-02-18,12:15:00,DRY,2.75,13.00,12.5,781.00,889.2
2020-02-18,12:20:00,DRY,3.47,12.53,14.3,781.00,896.2
2020-02-18,12:25:00,DRY,2.85,12.65,13.5,781.00,900.6
2020-02-18,12:30:00,DRY,3.97,12.30,14.0,781.00,907.4
2020-02-18,12:35:00,DRY,3.40,12.25,14.0,780.50,911.8
2020-02-18,12:40:00,DRY,2.47,12.70,16.7,780.33,916.5
2020-02-18,12:45:00,DRY,2.05,13.10,14.5,780.00,920.9
2020-02-18,12:50:00,DRY,1.97,12.60,21.3,780.00,923.3
2020-02-18,12:55:00,DRY,3.10,12.70,20.5,780.00,928.0
2020-02-18,13:00:00,DRY,2.03,12.57,21.0,780.00,929.6
2020-02-18,13:05:00,DRY,1.75,13.00,22.5,780.00,930.2
2020-02-18,13:10:00,DRY,2.93,13.03,28.3,780.00,932.2
2020-02-18,13:15:00,DRY,1.50,12.35,22.5,780.00,935.8
2020-02-18,13:20:00,DRY,2.73,12.47,24.3,780.00,932.6
2020-02-18,13:25:00,DRY,2.15,13.10,29.5,780.00,932.4
2020-02-18,13:30:00,DRY,3.30,12.60,32.0,780.00,930.9
2020-02-18,13:35:00,DRY,2.60,13.00,23.0,780.00,932.6
2020-02-18,13:40:00,DRY,3.47,12.87,22.0,780.00,930.0
2020-02-18,13:45:00,DRY,3.20,12.90,23.5,780.00,925.5
2020-02-18,13:50:00,DRY,2.27,12.90,22.7,780.00,924.6
2020-02-18,13:55:00,DRY,2.95,12.40,24.5,780.00,922.2
2020-02-18,14:00:00,DRY,1.57,12.30,25.0,780.00,916.9
2020-02-18,14:05:00,DRY,3.20,12.70,23.0,780.00,914.5
2020-02-18,14:10:00,DRY,1.80,12.63,24.0,780.00,909.1
2020-02-18,14:15:00,DRY,3.15,12.60,27.5,780.00,903.6
2020-02-18,14:20:00,DRY,1.90,12.30,20.3,780.00,899.1
2020-02-18,14:25:00,DRY,1.10,12.90,19.0,780.00,891.7
2020-02-18,14:30:00,DRY,2.20,12.87,18.7,780.00,884.1
2020-02-18,14:35:00,DRY,2.45,12.55,20.5,780.00,878.9
2020-02-18,14:40:00,DRY,3.03,12.77,19.0,780.00,870.0
2020-02-18,14:45:00,DRY,3.75,12.55,27.0,780.00,860.7
2020-02-18,14:50:00,DRY,4.47,12.43,22.3,780.00,851.9
2020-02-18,14:55:00,DRY,2.25,12.40,22.0,780.00,842.8
2020-02-18,15:00:00,DRY,2.40,12.13,19.7,780.00,832.1
2020-02-18,15:05:00,DRY,4.15,12.25,13.5,779.50,823.9
2020-02-18,15:10:00,DRY,2.57,12.50,16.7,779.67,811.4
2020-02-18,15:15:00,DRY,2.20,12.35,23.0,779.00,802.5
2020-02-18,15:20:00,DRY,3.20,12.13,22.7,779.00,788.7
2020-02-18,15:25:00,DRY,2.95,11.75,29.0,779.00,775.9
2020-02-18,15:30:00,DRY,2.17,11.87,21.3,779.00,764.9
2020-02-18,15:35:00,DRY,1.40,12.15,24.5,779.00,753.0
2020-02-18,15:40:00,DRY,3.00,12.20,27.3,779.00,739.8
2020-02-18,15:45:00,DRY,3.50,11.60,22.0,779.00,724.1
2020-02-18,15:50:00,DRY,1.83,11.63,21.3,779.00,712.9
2020-02-18,15:55:00,DRY,3.10,11.95,19.5,779.00,697.4
2020-02-18,16:00:00,DRY,1.77,11.70,23.7,779.00,683.5
2020-02-18,16:05:00,DRY,2.95,11.85,21.0,779.00,668.2
2020-02-18,16:10:00,DRY,1.57,11.80,21.3,779.00,652.8
2020-02-18,16:15:00,DRY,2.55,11.85,19.0,779.00,635.7
2020-02-18,16:20:00,DRY,2.53,11.87,22.7,779.00,619.0
2020-02-18,16:25:00,DRY,2.65,11.60,17.5,779.00,601.5
2020-02-18,16:30:00,DRY,2.33,11.70,18.3,779.00,586.6
2020-02-18,16:35:00,DRY,3.30,11.55,26.5,779.00,567.9
2020-02-18,16:40:00,DRY,2.23,11.17,24.7,779.00,548.5
2020-02-18,16:45:00,DRY,3.05,11.35,17.5,779.00,532.0
2020-02-18,16:50:00,DRY,3.57,11.40,17.0,779.00,512.6
2020-02-18,16:55:00,DRY,3.65,11.35,13.5,779.00,494.5